Location: Piotrkow Trybunalski
(51.4000°N, 19.6830°E)
Time: 14:56:56
(UTC+01:00)

Vanguard 2 - Pass Details

Date: 14 February 2023
Orbit: 553 x 2927 km, 32.9° (Epoch: 24 March)

Event Time Altitude Azimuth Distance (km) Brightness Sun altitude
Rises 18:34:16 0° 218° (SW) 3,934 11.8 -16.1°
Reaches altitude 10° 18:37:19 10° 203° (SSW) 3,297 11.0 -16.6°
Maximum altitude 18:43:39 23° 156° (SSE) 3,051 10.3 -17.6°
Enters shadow 18:49:03 16° 123° (ESE) 3,946 10.6 -18.4°
Drops below altitude 10° 18:52:25 10° 112° (ESE) 4,734 - -18.9°
Sets 18:58:00 0° 100° (E) 6,145 - -19.8°
